Simultaneous Nadir Overpasses (SNOs) Predictions

Prediction of SNOs between GOES-17 and LANDSAT-8 Satellite Orbit:

Table of predicted SNOs for the next 14.0 days since TLE Epoch: 8/31/2024
Index Date Time (GOES-17) GOES-17 Lat,Lon LANDSAT-8 Lat,Lon Distance(km) Time Diff (sec)
1 08/31/2024 17:00:18 0.01,-104.72 -0.58,-101.81 330.85 80
2 09/01/2024 05:21:43 -0.01,-104.68 -0.51,-107.00 264.58 80
3 09/03/2024 05:06:54 -0.00,-104.68 0.14,-104.05 70.94 80
4 09/05/2024 04:54:44 -0.00,-104.68 0.79,-101.10 407.08 80
5 09/05/2024 17:15:59 0.00,-104.72 0.35,-106.25 174.41 80
6 09/07/2024 17:06:28 0.00,-104.72 -0.30,-103.29 162.24 80
7 09/08/2024 05:27:52 -0.01,-104.68 -0.81,-108.48 432.44 80
8 09/09/2024 16:54:16 0.01,-104.72 -0.93,-100.33 499.01 80
9 09/10/2024 05:15:40 -0.01,-104.68 -0.16,-105.52 95.72 80
10 09/12/2024 05:00:46 -0.02,-104.67 0.41,-102.55 241.08 80
11 09/12/2024 17:22:01 0.02,-104.71 0.68,-107.70 340.66 80
